STARLINK-32550 (62131 NORAD) Tracking and Keplerian Element Data

This shows tracking and keplerian element data for the satellite.

Feedback or suggestion? Click here.




ElementValue
Catalog62131
NameSTARLINK-32550
Epoch Orbit1174
Epoch Day34.57378631
Epoch Year2025
RAAN231.5466
Inclination43.0063
Eccentricity0.000458
Argument of Perigee307.2043
Mean Anonmoly52.8396
Mean Motion15.40702562
Decay Rate2.21E-06
L11 62131U 24222T 25034.57378631 .00000221 00000+0 12605-4 0 9991
L22 62131 43.0063 231.5466 0004580 307.2043 52.8396 15.40702562 11742



Live tracking and technical data element details for STARLINK-32550 (NORAD 62131). STARLINK-32550 can be tracked NOW for your location showing map with azimuth and elevation plus other details from your city location.







IsCatalogInMostPopularTable: catalog: 62131, numindb: 22
Update: records affected: 1



GetName: 62131 STARLINK-32550

Hit Count: updated at: Sun, 18 May 2025 23:03:11 GMT